This is the latest recevied weather packets stored in our database for station/object KE4LOJ. If no packets are shown the sender has not sent any weather packets the latest 10 day(s).
| Time | Temp. | Humidity | Pressure | Rain* | Wind** | Luminosity | Snow |
|---|---|---|---|---|---|---|---|
| 1777923649 | 25.56° C | 53% | 1016.6 hPa | 0 mm | - | 508 W/m² | - |
| 1777923346 | 26.11° C | 52% | 1016.5 hPa | 0 mm | - | 695 W/m² | - |
| 1777923045 | 25.56° C | 53% | 1016.3 hPa | 0 mm | - | 896 W/m² | - |
| 1777922743 | 25.56° C | 53% | 1016.5 hPa | 0 mm | - | 636 W/m² | - |
| 1777922441 | 25.56° C | 54% | 1016.5 hPa | 0 mm | - | 255 W/m² | - |
| 1777922138 | 25.56° C | 53% | 1016.6 hPa | 0 mm | - | 648 W/m² | - |
| 1777921834 | 25.56° C | 52% | 1016.7 hPa | 0 mm | - | 890 W/m² | - |
| 1777921531 | 25° C | 55% | 1016.8 hPa | 0 mm | - | 884 W/m² | - |
| 1777921227 | 25.56° C | 54% | 1016.9 hPa | 0 mm | - | 192 W/m² | - |
| 1777920924 | 25.56° C | 54% | 1017 hPa | 0 mm | - | 375 W/m² | - |
| 1777920620 | 25.56° C | 53% | 1016.9 hPa | 0 mm | - | 925 W/m² | - |
| 1777920316 | 25.56° C | 53% | 1016.8 hPa | 0 mm | - | 450 W/m² | - |
| 1777920012 | 25.56° C | 51% | 1017 hPa | 0 mm | - | 788 W/m² | - |
| 1777919709 | 25.56° C | 52% | 1017.1 hPa | 0 mm | - | 469 W/m² | - |
| 1777919407 | 26.11° C | 51% | 1017.2 hPa | 0 mm | - | 733 W/m² | - |
| 1777919103 | 25.56° C | 54% | 1017.4 hPa | 0 mm | - | 662 W/m² | - |
| 1777918801 | 26.11° C | 53% | 1017.3 hPa | 0 mm | - | 354 W/m² | - |
| 1777918497 | 25.56° C | 52% | 1017.4 hPa | 0 mm | - | 594 W/m² | - |
| 1777918196 | 25.56° C | 52% | 1017.4 hPa | 0 mm | - | 448 W/m² | - |
| 1777917895 | 26.11° C | 52% | 1017.4 hPa | 0 mm | - | 615 W/m² | - |
| 1777917593 | 26.11° C | 52% | 1017.5 hPa | 0 mm | - | 971 W/m² | - |
| 1777917290 | 25.56° C | 52% | 1017.3 hPa | 0 mm | - | 268 W/m² | - |
| 1777916987 | 25.56° C | 52% | 1017.4 hPa | 0 mm | - | 448 W/m² | - |
| 1777916684 | 26.11° C | 54% | 1017.4 hPa | 0 mm | - | 282 W/m² | - |
| 1777916382 | 26.11° C | 53% | 1017.4 hPa | 0 mm | - | 308 W/m² | - |
* Rain latest hour (hover to see other rain measurements)
** Current wind speed in m/s (hover to see current wind gust speed)